Location: Sternwarte ZA, Rosenfeld-Brittheim
(48.2889°N, 8.6789°E)
Time: 05:18:44
(UTC+02:00)

ISS - Pass Details

Date: 19 May 2018
Orbit: 402 x 407 km, 51.6° (Epoch: 25 May)

Event Time Altitude Azimuth Distance (km) Brightness Sun altitude
Rises 04:03:58 0° 291° (WNW) 2,320 -0.2 -12.9°
Reaches altitude 10° 04:06:03 10° 293° (WNW) 1,459 -1.2 -12.7°
Maximum altitude 04:09:19 75° 19° (NNE) 421 -3.7 -12.4°
Drops below altitude 10° 04:12:35 10° 106° (ESE) 1,455 -0.7 -12.0°
Sets 04:14:39 0° 108° (ESE) 2,312 0.3 -11.8°
